Time,TemperatureF,DewpointF,PressureIn,WindDirection,WindDirectionDegrees,WindSpeedMPH,WindSpeedGustMPH,Humidity,HourlyPrecipIn,Conditions,Clouds,dailyrainin,SoftwareType,DateUTC
2013-04-07 00:02:00,54.1,50.4,30.22,NE,35,4.0,7.0,87,0.00,,,0.00,meteohub,2013-04-07 07:02:00,
2013-04-07 00:07:00,54.1,50.4,30.22,West,276,6.0,7.0,87,0.00,,,0.00,meteohub,2013-04-07 07:07:00,
2013-04-07 00:12:00,54.1,50.4,30.22,NNW,331,5.0,8.0,87,0.00,,,0.00,meteohub,2013-04-07 07:12:00,
2013-04-07 00:17:00,54.1,50.4,30.22,WNW,286,7.0,8.0,87,0.00,,,0.00,meteohub,2013-04-07 07:17:00,
2013-04-07 00:22:00,54.0,50.5,30.22,NNW,345,3.0,9.0,88,0.00,,,0.00,meteohub,2013-04-07 07:22:00,
2013-04-07 00:27:00,54.1,50.7,30.22,North,10,4.0,9.0,88,0.00,,,0.00,meteohub,2013-04-07 07:27:00,
2013-04-07 00:32:00,54.1,50.7,30.22,West,272,1.0,9.0,88,0.00,,,0.00,meteohub,2013-04-07 07:32:00,
2013-04-07 00:37:00,54.1,50.7,30.22,NW,318,0.0,8.0,88,0.00,,,0.00,meteohub,2013-04-07 07:37:00,
2013-04-07 00:42:00,54.1,50.7,30.22,SSW,211,0.0,6.0,88,0.00,,,0.00,meteohub,2013-04-07 07:42:00,
2013-04-07 00:47:00,54.3,50.9,30.22,WNW,290,2.0,7.0,88,0.00,,,0.00,meteohub,2013-04-07 07:47:00,
2013-04-07 00:52:00,54.3,50.9,30.22,West,275,1.0,7.0,88,0.00,,,0.00,meteohub,2013-04-07 07:52:00,
2013-04-07 00:57:00,54.3,50.9,30.22,West,259,3.0,7.0,88,0.00,,,0.00,meteohub,2013-04-07 07:57:00,
2013-04-07 01:07:00,54.3,50.9,30.22,NW,306,1.0,7.0,88,0.00,,,0.00,meteohub,2013-04-07 08:07:00,
2013-04-07 01:12:00,54.1,50.7,30.22,WNW,285,5.0,7.0,88,0.00,,,0.00,meteohub,2013-04-07 08:12:00,
2013-04-07 01:22:00,54.1,50.7,30.22,NNW,345,2.0,7.0,88,0.00,,,0.00,meteohub,2013-04-07 08:22:00,
2013-04-07 01:27:00,54.1,50.7,30.22,WNW,288,1.0,8.0,88,0.00,,,0.00,meteohub,2013-04-07 08:27:00,
2013-04-07 01:32:00,54.3,50.9,30.21,West,266,3.0,8.0,88,0.00,,,0.00,meteohub,2013-04-07 08:32:00,
2013-04-07 01:42:00,54.3,50.5,30.20,North,350,2.0,6.0,87,0.00,,,0.00,meteohub,2013-04-07 08:42:00,
2013-04-07 01:52:00,54.3,50.9,30.20,NNW,329,4.0,6.0,88,0.00,,,0.00,meteohub,2013-04-07 08:52:00,
2013-04-07 01:57:00,54.3,50.9,30.20,WNW,287,1.0,6.0,88,0.00,,,0.00,meteohub,2013-04-07 08:57:00,
2013-04-07 02:07:00,54.5,50.7,30.20,WNW,284,5.0,7.0,87,0.00,,,0.00,meteohub,2013-04-07 09:07:00,
2013-04-07 02:12:00,54.3,50.5,30.20,SW,230,5.0,8.0,87,0.00,,,0.00,meteohub,2013-04-07 09:12:00,
2013-04-07 02:17:00,54.5,50.7,30.20,NE,54,2.0,8.0,87,0.00,,,0.00,meteohub,2013-04-07 09:17:00,
2013-04-07 02:22:00,54.5,50.7,30.20,NW,310,0.0,6.0,87,0.00,,,0.00,meteohub,2013-04-07 09:22:00,
2013-04-07 02:27:00,54.5,50.7,30.19,NW,306,0.0,5.0,87,0.00,,,0.00,meteohub,2013-04-07 09:27:00,
2013-04-07 02:32:00,54.5,50.4,30.19,WNW,288,3.0,11.0,86,0.00,,,0.00,meteohub,2013-04-07 09:32:00,
2013-04-07 02:42:00,54.5,50.7,30.20,NW,310,3.0,11.0,87,0.00,,,0.00,meteohub,2013-04-07 09:42:00,
2013-04-07 02:52:00,54.7,50.5,30.19,WNW,292,3.0,5.0,86,0.00,,,0.00,meteohub,2013-04-07 09:52:00,
2013-04-07 02:57:00,54.7,50.5,30.19,West,269,2.0,5.0,86,0.00,,,0.00,meteohub,2013-04-07 09:57:00,
2013-04-07 03:02:00,54.5,50.4,30.19,WNW,288,3.0,5.0,86,0.00,,,0.00,meteohub,2013-04-07 10:02:00,
2013-04-07 03:07:00,54.5,50.4,30.19,WSW,250,2.0,7.0,86,0.00,,,0.00,meteohub,2013-04-07 10:07:00,
2013-04-07 03:12:00,54.5,50.4,30.19,WNW,291,1.0,7.0,86,0.00,,,0.00,meteohub,2013-04-07 10:12:00,
2013-04-07 03:17:00,54.5,50.4,30.19,WNW,299,3.0,7.0,86,0.00,,,0.00,meteohub,2013-04-07 10:17:00,
2013-04-07 03:22:00,54.5,50.4,30.19,WSW,254,2.0,5.0,86,0.00,,,0.00,meteohub,2013-04-07 10:22:00,
2013-04-07 03:32:00,54.5,50.4,30.18,WNW,288,2.0,4.0,86,0.00,,,0.00,meteohub,2013-04-07 10:32:00,
2013-04-07 03:42:00,54.3,50.2,30.18,West,281,3.0,5.0,86,0.00,,,0.00,meteohub,2013-04-07 10:42:00,
2013-04-07 03:47:00,54.3,50.2,30.18,NW,318,0.0,5.0,86,0.00,,,0.00,meteohub,2013-04-07 10:47:00,
2013-04-07 03:52:00,54.3,50.2,30.17,WSW,241,2.0,5.0,86,0.00,,,0.00,meteohub,2013-04-07 10:52:00,
2013-04-07 04:02:00,54.3,50.2,30.17,NW,319,0.0,6.0,86,0.00,,,0.00,meteohub,2013-04-07 11:02:00,
2013-04-07 04:07:00,54.5,50.4,30.17,SSW,206,2.0,6.0,86,0.00,,,0.00,meteohub,2013-04-07 11:07:00,
2013-04-07 04:12:00,54.5,50.4,30.17,West,272,0.0,5.0,86,0.00,,,0.00,meteohub,2013-04-07 11:12:00,
2013-04-07 04:17:00,54.3,50.2,30.17,WSW,252,1.0,4.0,86,0.00,,,0.00,meteohub,2013-04-07 11:17:00,
2013-04-07 04:22:00,54.3,50.2,30.17,South,186,0.0,4.0,86,0.00,,,0.00,meteohub,2013-04-07 11:22:00,
2013-04-07 04:32:00,54.3,50.5,30.17,SSW,206,1.0,4.0,87,0.00,,,0.00,meteohub,2013-04-07 11:32:00,
2013-04-07 04:37:00,54.3,50.5,30.17,SW,229,2.0,4.0,87,0.00,,,0.00,meteohub,2013-04-07 11:37:00,
2013-04-07 04:42:00,54.1,50.4,30.17,WNW,290,1.0,3.0,87,0.00,,,0.00,meteohub,2013-04-07 11:42:00,
2013-04-07 04:52:00,54.1,50.4,30.17,SSW,213,1.0,4.0,87,0.00,,,0.00,meteohub,2013-04-07 11:52:00,
2013-04-07 05:02:00,54.3,50.5,30.17,WNW,296,4.0,4.0,87,0.00,,,0.00,meteohub,2013-04-07 12:02:00,
2013-04-07 05:07:00,54.3,50.5,30.17,WNW,288,0.0,4.0,87,0.00,,,0.00,meteohub,2013-04-07 12:07:00,
2013-04-07 05:17:00,54.3,50.5,30.17,SW,223,1.0,4.0,87,0.00,,,0.00,meteohub,2013-04-07 12:17:00,
2013-04-07 05:27:00,54.5,50.7,30.17,WSW,252,0.0,2.0,87,0.00,,,0.00,meteohub,2013-04-07 12:27:00,
2013-04-07 05:32:00,54.5,50.7,30.17,WNW,300,2.0,3.0,87,0.00,,,0.00,meteohub,2013-04-07 12:32:00,
2013-04-07 05:42:00,54.7,50.9,30.17,WNW,298,0.0,3.0,87,0.00,,,0.00,meteohub,2013-04-07 12:42:00,
2013-04-07 05:52:00,54.7,50.9,30.17,WSW,241,0.0,3.0,87,0.00,,,0.00,meteohub,2013-04-07 12:52:00,
2013-04-07 05:57:00,54.9,51.1,30.16,NW,307,2.0,2.0,87,0.00,,,0.00,meteohub,2013-04-07 12:57:00,
2013-04-07 06:07:00,54.9,51.1,30.16,NW,316,4.0,5.0,87,0.00,,,0.00,meteohub,2013-04-07 13:07:00,
2013-04-07 06:12:00,54.9,51.1,30.16,NW,323,1.0,5.0,87,0.00,,,0.00,meteohub,2013-04-07 13:12:00,
2013-04-07 06:22:00,55.0,51.3,30.16,SSW,199,0.0,5.0,87,0.00,,,0.00,meteohub,2013-04-07 13:22:00,
2013-04-07 06:27:00,55.0,51.3,30.17,NW,309,1.0,4.0,87,0.00,,,0.00,meteohub,2013-04-07 13:27:00,
2013-04-07 06:37:00,55.0,51.3,30.17,WNW,290,1.0,2.0,87,0.00,,,0.00,meteohub,2013-04-07 13:37:00,
2013-04-07 06:42:00,55.0,51.3,30.17,WNW,283,0.0,2.0,87,0.00,,,0.00,meteohub,2013-04-07 13:42:00,
2013-04-07 06:52:00,55.0,51.3,30.17,WNW,288,0.0,2.0,87,0.00,,,0.00,meteohub,2013-04-07 13:52:00,
2013-04-07 06:57:00,55.0,51.3,30.17,WNW,290,2.0,2.0,87,0.00,,,0.00,meteohub,2013-04-07 13:57:00,
2013-04-07 07:07:00,54.9,51.1,30.17,SSW,201,0.0,4.0,87,0.00,,,0.00,meteohub,2013-04-07 14:07:00,
2013-04-07 07:12:00,54.9,51.1,30.17,SW,232,2.0,4.0,87,0.00,,,0.00,meteohub,2013-04-07 14:12:00,
2013-04-07 07:17:00,54.9,51.1,30.18,SW,221,1.0,4.0,87,0.00,,,0.00,meteohub,2013-04-07 14:17:00,
2013-04-07 07:27:00,54.9,51.1,30.17,WSW,238,2.0,4.0,87,0.00,,,0.00,meteohub,2013-04-07 14:27:00,
2013-04-07 07:37:00,55.0,51.3,30.17,WNW,284,1.0,5.0,87,0.00,,,0.00,meteohub,2013-04-07 14:37:00,
2013-04-07 07:47:00,55.2,51.4,30.17,SW,236,0.0,5.0,87,0.00,,,0.00,meteohub,2013-04-07 14:47:00,
2013-04-07 07:52:00,55.4,51.6,30.17,WSW,254,3.0,5.0,87,0.00,,,0.00,meteohub,2013-04-07 14:52:00,
2013-04-07 08:02:00,55.4,51.6,30.17,WSW,252,3.0,4.0,87,0.00,,,0.00,meteohub,2013-04-07 15:02:00,
2013-04-07 08:07:00,55.6,51.4,30.17,SW,227,5.0,5.0,86,0.00,,,0.00,meteohub,2013-04-07 15:07:00,
2013-04-07 08:12:00,55.6,51.4,30.17,SW,232,7.0,7.0,86,0.00,,,0.00,meteohub,2013-04-07 15:12:00,
2013-04-07 08:17:00,55.8,51.6,30.17,WSW,258,0.0,7.0,86,0.00,,,0.00,meteohub,2013-04-07 15:17:00,
2013-04-07 08:22:00,55.9,51.8,30.17,NW,319,2.0,7.0,86,0.00,,,0.00,meteohub,2013-04-07 15:22:00,
2013-04-07 08:27:00,55.9,51.8,30.17,NNE,17,2.0,7.0,86,0.00,,,0.00,meteohub,2013-04-07 15:27:00,
2013-04-07 08:32:00,56.1,51.6,30.17,SW,232,2.0,5.0,85,0.00,,,0.00,meteohub,2013-04-07 15:32:00,
2013-04-07 08:37:00,56.3,51.8,30.17,WSW,248,4.0,5.0,85,0.00,,,0.00,meteohub,2013-04-07 15:37:00,
2013-04-07 08:42:00,56.5,52.0,30.16,West,278,1.0,5.0,85,0.00,,,0.00,meteohub,2013-04-07 15:42:00,
2013-04-07 08:52:00,56.7,52.2,30.17,SW,227,4.0,7.0,85,0.00,,,0.00,meteohub,2013-04-07 15:52:00,
2013-04-07 08:57:00,56.5,52.0,30.16,WSW,253,5.0,9.0,85,0.00,,,0.00,meteohub,2013-04-07 15:57:00,
2013-04-07 09:07:00,56.7,52.2,30.16,SW,234,1.0,9.0,85,0.00,,,0.00,meteohub,2013-04-07 16:07:00,
2013-04-07 09:17:00,57.0,52.5,30.15,West,279,3.0,6.0,85,0.00,,,0.00,meteohub,2013-04-07 16:17:00,
2013-04-07 09:27:00,57.2,52.7,30.15,WSW,252,2.0,9.0,85,0.00,,,0.00,meteohub,2013-04-07 16:27:00,
2013-04-07 09:32:00,57.4,52.9,30.15,WSW,250,5.0,9.0,85,0.00,,,0.00,meteohub,2013-04-07 16:32:00,
2013-04-07 09:37:00,57.4,52.5,30.15,WNW,285,2.0,6.0,84,0.00,,,0.00,meteohub,2013-04-07 16:37:00,
2013-04-07 09:42:00,57.7,52.9,30.15,SW,229,1.0,6.0,84,0.00,,,0.00,meteohub,2013-04-07 16:42:00,
2013-04-07 09:47:00,57.9,53.1,30.15,NW,321,4.0,8.0,84,0.00,,,0.00,meteohub,2013-04-07 16:47:00,
2013-04-07 09:57:00,57.9,53.1,30.15,WSW,257,3.0,9.0,84,0.00,,,0.00,meteohub,2013-04-07 16:57:00,
2013-04-07 10:02:00,57.9,53.1,30.16,SSW,213,3.0,9.0,84,0.00,,,0.00,meteohub,2013-04-07 17:02:00,
2013-04-07 10:07:00,57.7,53.2,30.16,WNW,290,4.0,9.0,85,0.00,,,0.00,meteohub,2013-04-07 17:07:00,
2013-04-07 10:12:00,57.7,53.2,30.16,ENE,59,4.0,10.0,85,0.00,,,0.00,meteohub,2013-04-07 17:12:00,
2013-04-07 10:17:00,57.7,53.6,30.16,WNW,292,3.0,10.0,86,0.00,,,0.00,meteohub,2013-04-07 17:17:00,
2013-04-07 10:27:00,57.7,53.6,30.17,SSW,206,2.0,11.0,86,0.00,,,0.00,meteohub,2013-04-07 17:27:00,
2013-04-07 10:32:00,57.9,53.8,30.16,NNW,342,4.0,11.0,86,0.00,,,0.00,meteohub,2013-04-07 17:32:00,
2013-04-07 10:37:00,57.9,53.8,30.16,NW,320,8.0,11.0,86,0.00,,,0.00,meteohub,2013-04-07 17:37:00,
2013-04-07 10:42:00,57.9,53.8,30.17,West,276,9.0,10.0,86,0.00,,,0.00,meteohub,2013-04-07 17:42:00,
2013-04-07 10:52:00,57.9,53.8,30.16,ENE,59,5.0,12.0,86,0.00,,,0.00,meteohub,2013-04-07 17:52:00,
2013-04-07 11:02:00,57.7,53.6,30.16,NW,313,5.0,11.0,86,0.00,,,0.00,meteohub,2013-04-07 18:02:00,
2013-04-07 11:07:00,57.6,53.8,30.16,SSW,203,1.0,13.0,87,0.00,,,0.00,meteohub,2013-04-07 18:07:00,
2013-04-07 11:17:00,57.6,54.0,30.15,WSW,250,8.0,13.0,88,0.00,,,0.00,meteohub,2013-04-07 18:17:00,
2013-04-07 11:27:00,57.7,54.0,30.16,NW,313,3.0,11.0,87,0.00,,,0.00,meteohub,2013-04-07 18:27:00,
2013-04-07 11:37:00,57.9,54.1,30.15,North,351,2.0,12.0,87,0.00,,,0.00,meteohub,2013-04-07 18:37:00,
2013-04-07 11:42:00,58.3,54.1,30.15,ENE,57,2.0,12.0,86,0.00,,,0.00,meteohub,2013-04-07 18:42:00,
2013-04-07 11:47:00,58.5,54.0,30.15,West,277,9.0,12.0,85,0.00,,,0.00,meteohub,2013-04-07 18:47:00,
2013-04-07 11:57:00,58.5,54.0,30.15,WSW,256,4.0,13.0,85,0.00,,,0.00,meteohub,2013-04-07 18:57:00,
2013-04-07 12:07:00,58.5,54.3,30.14,WSW,249,8.0,16.0,86,0.00,,,0.00,meteohub,2013-04-07 19:07:00,
2013-04-07 12:12:00,58.3,54.1,30.14,SSW,213,7.0,16.0,86,0.00,,,0.00,meteohub,2013-04-07 19:12:00,
2013-04-07 12:17:00,58.5,54.0,30.14,West,276,7.0,13.0,85,0.00,,,0.00,meteohub,2013-04-07 19:17:00,
2013-04-07 12:22:00,58.6,54.1,30.13,WNW,288,6.0,11.0,85,0.00,,,0.00,meteohub,2013-04-07 19:22:00,
2013-04-07 12:27:00,58.8,54.0,30.13,NW,311,4.0,10.0,84,0.00,,,0.00,meteohub,2013-04-07 19:27:00,
2013-04-07 12:37:00,60.3,54.3,30.14,WNW,292,4.0,10.0,81,0.00,,,0.00,meteohub,2013-04-07 19:37:00,
2013-04-07 12:42:00,59.9,53.4,30.14,WSW,248,9.0,12.0,79,0.00,,,0.00,meteohub,2013-04-07 19:42:00,
2013-04-07 12:47:00,59.5,53.4,30.14,ENE,66,9.0,16.0,80,0.00,,,0.00,meteohub,2013-04-07 19:47:00,
2013-04-07 12:57:00,59.7,53.2,30.14,West,279,6.0,16.0,79,0.00,,,0.00,meteohub,2013-04-07 19:57:00,
2013-04-07 13:02:00,60.3,53.1,30.12,West,267,8.0,16.0,77,0.00,,,0.00,meteohub,2013-04-07 20:02:00,
2013-04-07 13:07:00,60.3,52.3,30.12,WSW,253,3.0,14.0,75,0.00,,,0.00,meteohub,2013-04-07 20:07:00,
2013-04-07 13:12:00,60.3,52.3,30.12,WNW,284,5.0,12.0,75,0.00,,,0.00,meteohub,2013-04-07 20:12:00,
2013-04-07 13:17:00,60.1,52.2,30.12,WNW,283,4.0,12.0,75,0.00,,,0.00,meteohub,2013-04-07 20:17:00,
2013-04-07 13:22:00,60.1,52.2,30.11,North,5,6.0,11.0,75,0.00,,,0.00,meteohub,2013-04-07 20:22:00,
2013-04-07 13:27:00,59.7,52.2,30.11,WNW,295,7.0,11.0,76,0.00,,,0.00,meteohub,2013-04-07 20:27:00,
2013-04-07 13:37:00,60.4,53.2,30.11,WNW,296,8.0,15.0,77,0.00,,,0.00,meteohub,2013-04-07 20:37:00,
2013-04-07 13:42:00,60.1,52.5,30.11,West,276,5.0,11.0,76,0.00,,,0.00,meteohub,2013-04-07 20:42:00,
2013-04-07 13:47:00,60.1,52.9,30.11,WNW,286,9.0,9.0,77,0.00,,,0.00,meteohub,2013-04-07 20:47:00,
2013-04-07 13:52:00,60.3,53.1,30.10,North,5,3.0,11.0,77,0.00,,,0.00,meteohub,2013-04-07 20:52:00,
2013-04-07 13:57:00,60.4,52.9,30.10,WNW,295,7.0,11.0,76,0.00,,,0.00,meteohub,2013-04-07 20:57:00,
2013-04-07 14:07:00,60.6,52.3,30.09,NW,307,7.0,16.0,74,0.00,,,0.00,meteohub,2013-04-07 21:07:00,
2013-04-07 14:12:00,61.3,53.8,30.09,West,281,10.0,16.0,76,0.00,,,0.00,meteohub,2013-04-07 21:12:00,
2013-04-07 14:17:00,61.2,52.9,30.09,WNW,283,6.0,14.0,74,0.00,,,0.00,meteohub,2013-04-07 21:17:00,
2013-04-07 14:27:00,61.0,53.1,30.08,NNW,340,5.0,14.0,75,0.00,,,0.00,meteohub,2013-04-07 21:27:00,
2013-04-07 14:32:00,60.3,52.3,30.08,ENE,63,4.0,14.0,75,0.00,,,0.00,meteohub,2013-04-07 21:32:00,
2013-04-07 14:37:00,59.5,52.0,30.08,West,279,9.0,14.0,76,0.00,,,0.00,meteohub,2013-04-07 21:37:00,
2013-04-07 14:47:00,59.5,51.6,30.08,West,259,8.0,14.0,75,0.00,,,0.00,meteohub,2013-04-07 21:47:00,
2013-04-07 14:57:00,59.2,51.6,30.08,NW,315,3.0,15.0,76,0.00,,,0.00,meteohub,2013-04-07 21:57:00,
2013-04-07 15:07:00,58.8,51.3,30.08,NW,313,7.0,15.0,76,0.00,,,0.00,meteohub,2013-04-07 22:07:00,
2013-04-07 15:12:00,58.6,51.4,30.07,NW,320,5.0,12.0,77,0.00,,,0.00,meteohub,2013-04-07 22:12:00,
2013-04-07 15:17:00,59.0,51.4,30.07,East,81,3.0,12.0,76,0.00,,,0.00,meteohub,2013-04-07 22:17:00,
2013-04-07 15:22:00,59.9,52.3,30.08,SW,214,7.0,12.0,76,0.00,,,0.00,meteohub,2013-04-07 22:22:00,
2013-04-07 15:27:00,60.6,52.3,30.08,WNW,284,13.0,13.0,74,0.00,,,0.00,meteohub,2013-04-07 22:27:00,
2013-04-07 15:32:00,60.4,51.8,30.08,WNW,285,8.0,13.0,73,0.00,,,0.00,meteohub,2013-04-07 22:32:00,
2013-04-07 15:37:00,59.5,51.6,30.08,SSE,163,2.0,19.0,75,0.00,,,0.00,meteohub,2013-04-07 22:37:00,
2013-04-07 15:47:00,59.0,51.4,30.06,NNE,22,6.0,19.0,76,0.00,,,0.00,meteohub,2013-04-07 22:47:00,
2013-04-07 15:57:00,59.2,51.3,30.06,NW,306,5.0,14.0,75,0.00,,,0.00,meteohub,2013-04-07 22:57:00,
2013-04-07 16:02:00,59.5,51.3,30.06,NW,306,9.0,14.0,74,0.00,,,0.00,meteohub,2013-04-07 23:02:00,
2013-04-07 16:07:00,59.0,50.4,30.07,NW,325,6.0,15.0,73,0.00,,,0.00,meteohub,2013-04-07 23:07:00,
2013-04-07 16:17:00,58.5,50.2,30.06,WNW,289,3.0,15.0,74,0.00,,,0.00,meteohub,2013-04-07 23:17:00,
2013-04-07 16:22:00,58.8,50.2,30.06,NNW,340,12.0,19.0,73,0.00,,,0.00,meteohub,2013-04-07 23:22:00,
2013-04-07 16:27:00,58.8,49.5,30.06,WNW,292,5.0,19.0,71,0.00,,,0.00,meteohub,2013-04-07 23:27:00,
2013-04-07 16:32:00,58.8,49.1,30.06,ENE,65,5.0,15.0,70,0.00,,,0.00,meteohub,2013-04-07 23:32:00,
2013-04-07 16:37:00,59.2,49.5,30.06,WNW,290,4.0,16.0,70,0.00,,,0.00,meteohub,2013-04-07 23:37:00,
2013-04-07 16:42:00,59.2,49.1,30.05,West,259,6.0,16.0,69,0.00,,,0.00,meteohub,2013-04-07 23:42:00,
2013-04-07 16:47:00,59.2,49.8,30.05,WNW,285,3.0,16.0,71,0.00,,,0.00,meteohub,2013-04-07 23:47:00,
2013-04-07 16:52:00,59.0,49.3,30.05,WNW,292,4.0,11.0,70,0.00,,,0.00,meteohub,2013-04-07 23:52:00,
2013-04-07 16:57:00,58.5,49.5,30.04,NNW,338,3.0,16.0,72,0.00,,,0.00,meteohub,2013-04-07 23:57:00,
2013-04-07 17:07:00,58.3,49.6,30.05,WNW,286,8.0,16.0,73,0.00,,,0.00,meteohub,2013-04-08 00:07:00,
2013-04-07 17:12:00,57.9,48.9,30.05,SW,219,5.0,13.0,72,0.00,,,0.00,meteohub,2013-04-08 00:12:00,
2013-04-07 17:17:00,57.6,49.3,30.05,West,280,6.0,20.0,74,0.00,,,0.00,meteohub,2013-04-08 00:17:00,
2013-04-07 17:22:00,57.6,49.3,30.04,West,264,7.0,20.0,74,0.00,,,0.00,meteohub,2013-04-08 00:22:00,
2013-04-07 17:27:00,57.7,49.5,30.04,WNW,294,3.0,20.0,74,0.00,,,0.00,meteohub,2013-04-08 00:27:00,
2013-04-07 17:32:00,57.6,49.3,30.04,WNW,288,11.0,13.0,74,0.00,,,0.00,meteohub,2013-04-08 00:32:00,
2013-04-07 17:42:00,57.6,49.6,30.03,NW,315,5.0,17.0,75,0.00,,,0.00,meteohub,2013-04-08 00:42:00,
2013-04-07 17:52:00,57.4,49.5,30.03,WNW,296,4.0,12.0,75,0.00,,,0.00,meteohub,2013-04-08 00:52:00,
2013-04-07 17:57:00,57.0,49.1,30.03,NNW,338,11.0,13.0,75,0.00,,,0.00,meteohub,2013-04-08 00:57:00,
2013-04-07 18:07:00,56.8,48.9,30.02,West,276,11.0,19.0,75,0.00,,,0.00,meteohub,2013-04-08 01:07:00,
2013-04-07 18:12:00,56.5,48.9,30.02,WNW,296,16.0,19.0,76,0.00,,,0.00,meteohub,2013-04-08 01:12:00,
2013-04-07 18:22:00,56.1,48.9,30.01,WNW,294,3.0,26.0,77,0.00,,,0.00,meteohub,2013-04-08 01:22:00,
2013-04-07 18:32:00,56.1,48.4,30.02,West,273,8.0,18.0,75,0.00,,,0.00,meteohub,2013-04-08 01:32:00,
2013-04-07 18:37:00,55.9,48.2,30.01,SW,221,7.0,18.0,75,0.00,,,0.00,meteohub,2013-04-08 01:37:00,
2013-04-07 18:47:00,55.8,48.0,30.02,NNW,340,6.0,20.0,75,0.00,,,0.00,meteohub,2013-04-08 01:47:00,
2013-04-07 18:52:00,55.8,47.7,30.02,SW,225,2.0,20.0,74,0.00,,,0.00,meteohub,2013-04-08 01:52:00,
2013-04-07 19:02:00,55.2,47.5,30.02,NNW,336,2.0,15.0,75,0.00,,,0.00,meteohub,2013-04-08 02:02:00,
2013-04-07 19:07:00,55.0,47.3,30.01,NW,308,10.0,15.0,75,0.00,,,0.00,meteohub,2013-04-08 02:07:00,
2013-04-07 19:12:00,55.0,47.3,30.01,West,276,4.0,16.0,75,0.00,,,0.00,meteohub,2013-04-08 02:12:00,
2013-04-07 19:17:00,55.0,47.3,30.01,WNW,302,7.0,16.0,75,0.00,,,0.00,meteohub,2013-04-08 02:17:00,
2013-04-07 19:22:00,55.0,47.3,30.02,NW,306,3.0,16.0,75,0.00,,,0.00,meteohub,2013-04-08 02:22:00,
2013-04-07 19:27:00,55.0,47.3,30.01,West,271,3.0,14.0,75,0.00,,,0.00,meteohub,2013-04-08 02:27:00,
2013-04-07 19:32:00,55.2,47.5,30.01,WSW,241,9.0,14.0,75,0.00,,,0.00,meteohub,2013-04-08 02:32:00,
2013-04-07 19:37:00,55.2,47.5,30.01,WNW,303,9.0,12.0,75,0.00,,,0.00,meteohub,2013-04-08 02:37:00,
2013-04-07 19:42:00,55.0,47.3,30.01,West,269,5.0,10.0,75,0.00,,,0.00,meteohub,2013-04-08 02:42:00,
2013-04-07 19:47:00,55.0,47.7,30.00,NW,309,6.0,13.0,76,0.00,,,0.00,meteohub,2013-04-08 02:47:00,
2013-04-07 19:57:00,54.9,47.8,29.99,WSW,248,5.0,13.0,77,0.00,,,0.00,meteohub,2013-04-08 02:57:00,
2013-04-07 20:07:00,54.7,48.0,29.99,NNW,337,6.0,12.0,78,0.00,,,0.00,meteohub,2013-04-08 03:07:00,
2013-04-07 20:12:00,54.9,48.2,29.99,WNW,287,3.0,12.0,78,0.00,,,0.00,meteohub,2013-04-08 03:12:00,
2013-04-07 20:17:00,54.7,48.0,29.99,SW,232,5.0,12.0,78,0.00,,,0.00,meteohub,2013-04-08 03:17:00,
2013-04-07 20:27:00,54.5,48.2,29.99,WNW,294,4.0,14.0,79,0.00,,,0.00,meteohub,2013-04-08 03:27:00,
2013-04-07 20:32:00,54.7,48.4,29.99,West,268,8.0,14.0,79,0.00,,,0.00,meteohub,2013-04-08 03:32:00,
2013-04-07 20:37:00,54.5,48.4,30.00,NW,323,8.0,14.0,80,0.00,,,0.00,meteohub,2013-04-08 03:37:00,
2013-04-07 20:42:00,54.3,48.9,30.00,West,259,4.0,16.0,82,0.00,,,0.00,meteohub,2013-04-08 03:42:00,
2013-04-07 20:52:00,53.8,49.5,29.99,NNE,32,10.0,16.0,85,0.01,,,0.01,meteohub,2013-04-08 03:52:00,
2013-04-07 20:57:00,53.2,49.1,29.99,West,259,6.0,12.0,86,0.01,,,0.01,meteohub,2013-04-08 03:57:00,
2013-04-07 21:02:00,53.2,49.8,29.99,SW,230,6.0,12.0,88,0.01,,,0.01,meteohub,2013-04-08 04:02:00,
2013-04-07 21:07:00,53.1,49.6,29.98,NW,310,5.0,12.0,88,0.02,,,0.02,meteohub,2013-04-08 04:07:00,
2013-04-07 21:12:00,53.1,49.8,29.99,WNW,285,6.0,11.0,89,0.02,,,0.02,meteohub,2013-04-08 04:12:00,
2013-04-07 21:17:00,53.1,50.2,29.98,West,268,2.0,10.0,90,0.02,,,0.02,meteohub,2013-04-08 04:17:00,
2013-04-07 21:22:00,53.1,50.2,29.97,WSW,244,2.0,9.0,90,0.02,,,0.02,meteohub,2013-04-08 04:22:00,
2013-04-07 21:32:00,53.2,50.4,29.97,NNE,18,5.0,7.0,90,0.02,,,0.02,meteohub,2013-04-08 04:32:00,
2013-04-07 21:37:00,53.2,50.4,29.97,WNW,303,4.0,9.0,90,0.02,,,0.02,meteohub,2013-04-08 04:37:00,
2013-04-07 21:47:00,53.4,50.5,29.96,WNW,287,2.0,10.0,90,0.02,,,0.02,meteohub,2013-04-08 04:47:00,
2013-04-07 21:52:00,53.4,50.5,29.96,NW,305,8.0,11.0,90,0.01,,,0.02,meteohub,2013-04-08 04:52:00,
2013-04-07 21:57:00,53.2,50.4,29.95,WSW,244,6.0,11.0,90,0.01,,,0.02,meteohub,2013-04-08 04:57:00,
2013-04-07 22:02:00,53.2,50.4,29.95,NW,318,2.0,11.0,90,0.01,,,0.02,meteohub,2013-04-08 05:02:00,
2013-04-07 22:12:00,53.2,50.4,29.94,West,280,5.0,11.0,90,0.00,,,0.02,meteohub,2013-04-08 05:12:00,
2013-04-07 22:17:00,53.2,50.7,29.94,West,271,4.0,11.0,91,0.00,,,0.02,meteohub,2013-04-08 05:17:00,
2013-04-07 22:27:00,53.4,51.1,29.93,WNW,302,4.0,13.0,92,0.01,,,0.03,meteohub,2013-04-08 05:27:00,
2013-04-07 22:37:00,53.4,51.1,29.93,NNW,333,7.0,16.0,92,0.01,,,0.03,meteohub,2013-04-08 05:37:00,
2013-04-07 22:42:00,53.4,51.1,29.92,West,273,4.0,16.0,92,0.01,,,0.03,meteohub,2013-04-08 05:42:00,
2013-04-07 22:52:00,53.8,51.4,29.91,WNW,295,9.0,16.0,92,0.02,,,0.04,meteohub,2013-04-08 05:52:00,
2013-04-07 23:02:00,54.0,51.6,29.91,WNW,302,12.0,20.0,92,0.02,,,0.04,meteohub,2013-04-08 06:02:00,
2013-04-07 23:07:00,54.0,51.6,29.91,SW,236,6.0,20.0,92,0.02,,,0.04,meteohub,2013-04-08 06:07:00,
2013-04-07 23:12:00,54.0,51.6,29.90,WNW,298,8.0,20.0,92,0.02,,,0.04,meteohub,2013-04-08 06:12:00,
2013-04-07 23:17:00,53.8,51.4,29.90,WNW,292,8.0,20.0,92,0.02,,,0.04,meteohub,2013-04-08 06:17:00,
2013-04-07 23:22:00,53.8,51.4,29.91,NW,318,5.0,19.0,92,0.02,,,0.05,meteohub,2013-04-08 06:22:00,
2013-04-07 23:32:00,53.8,51.3,29.91,WSW,252,8.0,18.0,91,0.02,,,0.05,meteohub,2013-04-08 06:32:00,
2013-04-07 23:37:00,53.8,50.9,29.91,WNW,303,3.0,18.0,90,0.02,,,0.05,meteohub,2013-04-08 06:37:00,
2013-04-07 23:42:00,54.0,51.1,29.91,NW,306,12.0,18.0,90,0.01,,,0.05,meteohub,2013-04-08 06:42:00,
2013-04-07 23:47:00,54.1,50.4,29.91,WNW,294,5.0,18.0,87,0.01,,,0.05,meteohub,2013-04-08 06:47:00,
2013-04-07 23:57:00,54.1,49.5,29.91,NNE,31,3.0,16.0,84,0.01,,,0.05,meteohub,2013-04-08 06:57:00,